SCP
0 0 0 0 0 0 0 0 0 0 0 0 0 0 0 0 0 0 0 0 0 0 0 0 0 0 0 0 0 0 0 0 0 0 0 0 0 0 0 0 0 0 0
0 0 0 0 0 0 0 0 0 0 0 0 0 0 0 0 0 0 0 0 0 0 0 0 0 0 0 0 0 0 0 0 0 0 0 0 0 0 0 0 0 0 0
0 0 0 0 0 0 0 0 0 0 0 0 0 0 0 0 0 0 0 0 0 0 0 0 0 0 0 0 0 0 0 0 0 0 0 0 0 0 -0 0 0 0 0
0 0 0 0 0 0 0 0 0 0 0 0 0 0 0 0 0 0 0 0 0 0 0 0 0 0 0 0 0 0 0 0 0 0 0 0 0 0 -0 -0 0 0 0
0 0 0 0 0 0 0 0 0 0 0 0 0 0 0 0 0 0 0 0 0 0 0 0 0 0 0 0 0 0 0 0 0 0 0 0 0 0 0 0 0 0 0
0 0 0 0 0 0 0 0 0 0 0 0 0 0 0 0 0 0 0 0 0 0 0 0 0 0 0 0 0 0 0 0 0 0 0 0 0 0 0 0 0 0 0
0 0 0 0 0 0 0 0 0 0 0 0 0 0 0 0 0 0 0 0 0 0 0 0 0 0 0 0 0 0 0 0 0 0 0 0 0 0 0 0 0 0 0
0 0 0 0 0 0 0 0 0 0 0 0 0 0 0 0 0 0 0 0 0 0 0 0 0 0 0 0 0 0 0 0 0 0 0 0 0 0 0 0 0 0 0
0 0 0 0 0 0 0 0 0 0 0 0 0 0 0 0 0 0 0 0 0 0 0 0 0 0 0 0 0 0 0 0 0 0 0 0 0 0 0 0 0 0 0
0 0 0 0 0 0 0 0 0 0 0 0 0 0 0 0 0 0 0 0 0 0 0 0 0 0 0 0 0 0 0 0 0 0 0 0 0 0 0 0 0 0 0
0 0 0 0 0 0 0 0 0 0 0 0 0 0 0 0 0 0 0 0 0 0 0 0 0 0 0 0 0 0 0 0 0 0 0 0 0 0 0 0 0 0 0
0 0 0 0 0 0 0 0 0 0 0 0 0 0 0 0 0 0 0 0 0 0 0 0 0 0 0 0 0 0 0 0 0 0 0 0 0 0 0 0 0 0 0
0 0 0 0 0 0 0 0 0 0 0 0 0 0 0 0 0 0 0 0 0 0 0 0 0 0 0 0 0 0 0 0 0 0 0 0 0 0 0 0 0 0 0
0 0 0 0 0 0 0 0 0 0 0 0 0 0 0 0 0 0 0 0 0 0 0 0 0 0 0 0 0 0 0 0 0 0 0 0 0 0 0 0 0 0 0
0 0 0 0 0 0 0 0 0 0 0 0 0 0 0 0 0 0 0 0 0 0 0 0 0 0 0 0 0 0 0 0 0 0 0 0 0 0 0 0 0 0 0
0 0 0 0 0 0 0 0 0 0 0 0 0 0 0 0 0 0 0 0 0 0 0 0 0 0 0 0 0 0 0 0 0 0 0 0 0 0 0 0 0 0 0
0 0 0 0 0 0 0 0 0 0 0 0 0 0 0 0 0 0 0 0 0 0 0 0 0 0 0 0 0 0 0 0 0 0 0 0 0 0 0 0 0 0 0
0 0 0 0 0 0 0 0 0 0 0 0 0 0 0 0 0 0 0 0 0 0 0 0 0 0 0 0 0 0 0 0 0 0 0 0 0 0 0 0 0 0 0
0 0 0 0 0 0 0 0 0 0 0 0 0 0 0 0 0 0 0 0 0 0 0 0 0 0 0 0 0 0 0 0 0 0 0 0 0 0 0 0 0 0 0
0 0 0 0 0 0 0 0 0 0 0 0 0 0 0 0 0 0 0 0 0 0 0 0 0 0 0 0 0 0 0 0 0 0 0 0 0 0 0 0 0 0 0
0 0 0 0 0 0 0 0 0 0 0 0 0 0 0 0 0 0 0 0 0 0 0 0 0 0 0 0 0 0 0 0 0 0 0 0 0 0 0 0 0 0 0
0 0 0 0 0 0 0 0 0 0 0 0 0 0 0 0 0 0 0 0 0 0 0 0 0 0 0 0 0 0 0 0 0 0 0 0 0 0 0 0 0 0 0
0 0 0 0 0 0 0 0 0 0 0 0 0 0 0 0 0 0 0 0 0 0 0 0 0 0 0 0 0 0 0 0 0 0 0 0 0 0 0 0 0 0 0
0 0 0 0 0 0 0 0 0 0 0 0 0 0 0 0 0 0 0 0 0 0 0 0 0 0 0 0 0 0 0 0 0 0 0 0 0 0 0 0 0 0 0
0 0 0 0 0 0 0 0 0 0 0 0 0 0 0 0 0 0 0 0 0 0 0 0 0 0 0 0 0 0 0 0 0 0 0 0 0 0 0 0 0 0 0
0 0 0 0 0 0 0 0 0 0 0 0 0 0 0 0 0 0 0 0 0 0 0 0 0 0 0 0 0 0 0 0 0 0 0 0 0 0 0 0 0 0 0
Wind_Speed
2 2 2 2 2 2 3 3 3 2 2 3 3 3 3 4 3 4 4 4 4 4 4 5 5 4 3 3 3 3 3 3 4 4 3 2 3 3 4 3 4 4 4
2 2 2 2 2 2 2 3 3 3 3 3 2 3 3 4 4 5 5 5 5 5 5 5 6 4 5 4 4 4 4 4 4 5 3 3 4 4 4 4 4 4 3
1 2 2 1 2 2 2 2 3 3 3 3 2 3 3 4 4 5 5 5 6 6 6 6 6 6 6 5 5 5 4 4 3 4 4 3 3 3 3 4 4 4 4
1 2 2 2 3 3 2 2 2 2 3 3 3 3 3 4 5 5 5 5 5 5 5 5 6 7 7 7 6 6 5 4 4 4 4 3 3 3 3 3 4 3 4
2 2 3 3 2 2 2 2 2 2 3 3 3 3 3 3 4 5 5 5 5 5 5 5 6 7 9 7 6 6 6 5 4 4 4 4 4 4 4 4 4 3 4
2 3 2 2 2 2 2 2 2 2 2 2 3 3 4 4 6 7 5 4 4 4 4 4 5 6 8 10 10 9 9 7 7 6 5 6 6 5 4 4 4 3 4
2 2 2 2 2 2 2 2 2 3 2 2 3 3 4 5 7 7 7 4 4 4 4 4 4 5 6 5 8 10 10 11 11 7 7 7 6 6 5 6 6 5 6
2 2 2 2 2 2 2 2 3 2 3 3 3 4 4 5 7 7 7 4 3 4 5 5 5 5 5 5 5 6 6 7 8 6 6 6 6 5 6 6 6 5 5
2 3 3 2 2 2 2 2 2 2 3 3 3 4 4 5 7 7 6 3 3 4 5 5 5 5 8 9 6 5 6 6 8 9 10 9 11 11 8 4 4 4 5
3 3 2 2 2 2 3 3 2 2 3 3 3 3 4 4 7 7 6 3 3 3 3 4 7 7 9 9 5 5 6 6 4 5 6 7 6 7 10 7 5 5 5
2 2 2 2 2 3 2 2 2 2 2 3 3 3 3 5 6 7 6 3 3 3 3 3 4 9 9 9 7 5 7 6 4 4 4 4 4 4 5 5 5 5 6
1 1 2 2 2 2 2 2 2 2 2 2 2 3 3 4 5 6 8 7 5 3 4 3 4 8 8 8 7 7 8 6 3 3 4 4 4 4 4 4 5 6 6
1 2 2 2 2 2 2 2 2 2 2 2 2 3 3 3 4 7 8 8 7 4 4 6 7 8 7 5 7 7 6 3 3 4 4 5 4 4 4 3 4 4 5
1 2 1 1 1 1 2 2 2 2 2 3 3 3 3 3 3 3 3 4 6 5 4 5 6 6 5 5 4 4 3 3 3 4 4 4 3 3 4 3 4 3 4
1 2 2 1 1 1 2 2 3 3 4 4 3 3 3 4 5 7 5 3 3 3 2 1 1 2 2 2 2 2 3 3 3 3 3 3 3 3 3 3 3 3 4
2 2 1 1 1 2 2 2 4 5 7 7 7 6 5 7 8 8 9 7 6 5 2 1 2 2 3 3 3 3 2 3 3 3 2 3 3 4 3 3 3 3 4
2 2 2 2 1 2 2 2 3 4 6 6 7 7 7 7 7 8 7 6 5 3 2 2 2 2 3 3 3 3 3 3 2 2 3 3 3 3 3 3 4 4 4
2 3 2 1 1 2 2 2 2 3 3 3 4 7 7 7 7 7 5 4 2 2 1 2 2 2 2 3 3 3 3 3 2 2 3 3 3 3 3 4 4 4 5
2 2 2 1 2 2 2 2 2 2 3 3 3 4 6 6 6 6 5 1 1 2 2 2 2 2 3 3 3 3 3 3 3 3 3 3 3 3 3 4 4 6 5
2 4 3 2 1 2 2 2 2 2 2 2 3 3 4 4 3 3 2 1 2 2 3 3 3 3 3 3 3 3 3 3 3 3 3 3 3 3 4 4 4 4 4
2 3 4 3 2 2 2 2 2 2 2 3 3 4 6 3 2 2 2 2 2 2 3 3 3 3 3 3 3 3 3 3 3 3 3 3 3 3 3 3 4 4 4
1 2 2 2 2 2 2 2 2 2 3 3 3 4 7 3 2 2 3 3 3 3 3 3 3 3 3 3 3 3 4 4 4 3 3 3 3 3 3 3 3 3 3
1 2 2 2 2 4 3 2 2 2 3 3 3 3 3 3 3 3 3 3 3 3 3 3 3 3 3 3 3 3 4 5 4 4 4 4 4 4 3 4 4 4 4
1 2 2 2 2 2 2 3 3 3 3 3 3 3 3 3 3 4 3 3 3 3 3 3 3 4 5 4 3 3 4 5 4 4 5 5 5 4 4 4 4 5 5
1 2 2 2 2 2 3 3 3 3 3 3 3 3 3 3 4 4 4 3 4 4 4 4 3 4 5 6 6 5 8 10 9 5 5 5 5 5 5 5 5 4 4
2 2 2 2 2 3 3 3 3 3 3 4 4 4 4 4 4 4 4 4 4 4 4 4 5 6 7 6 7 9 11 12 11 10 6 4 5 5 5 5 5 5 4
Wind_Direction
215 223 224 224 222 207 207 214 215 221 223 213 217 228 241 232 224 215 216 214 221 224 218 218 227 218 211 209 208 213 219 216 243 262 257 249 244 253 264 272 270 260 269
228 217 219 222 219 213 217 223 216 211 216 220 218 230 247 242 232 221 220 219 218 224 225 221 227 222 217 215 216 223 225 223 227 251 258 246 248 242 249 252 271 267 262
226 218 221 218 224 229 231 231 229 221 217 219 215 226 241 245 238 229 222 224 224 225 226 224 226 221 222 221 221 225 226 232 232 236 250 253 256 246 256 264 265 266 264
226 224 232 234 225 233 237 229 231 230 223 220 226 233 244 253 247 235 224 225 225 229 231 230 230 227 225 221 223 222 222 223 226 231 242 247 248 245 237 248 262 260 261
223 232 241 246 238 233 236 236 231 233 239 233 231 242 250 253 250 234 226 224 225 228 230 232 238 243 241 235 231 220 216 219 221 230 238 243 241 230 232 236 250 271 268
228 241 251 249 247 242 240 239 242 242 245 243 238 240 246 254 270 258 242 228 229 232 240 243 248 252 251 254 254 246 235 224 222 227 235 236 240 235 238 239 239 256 267
234 248 250 245 249 249 244 238 241 243 242 241 244 244 249 261 271 270 261 241 224 232 241 244 252 256 259 253 254 254 251 251 246 239 237 239 237 231 227 237 236 242 256
239 247 252 246 249 249 237 238 242 244 243 244 246 246 250 265 277 279 274 257 231 234 238 237 242 247 250 250 248 250 250 251 253 247 238 240 242 237 233 238 241 257 271
244 248 251 250 252 249 246 247 246 240 248 248 246 241 244 263 276 280 275 257 248 241 243 244 248 246 255 257 249 248 258 264 266 263 260 257 257 255 249 242 231 240 263
248 252 255 248 245 247 248 255 260 250 252 255 261 254 250 257 270 279 277 256 258 250 247 250 258 262 259 258 241 233 247 257 260 266 267 267 262 254 252 240 230 236 254
262 264 266 255 246 243 241 251 254 260 261 255 262 266 261 264 271 277 279 269 255 257 259 255 258 267 264 260 255 241 250 260 254 252 257 261 258 250 244 238 234 233 244
271 268 262 258 255 260 237 249 250 249 250 256 260 268 262 266 273 276 280 284 279 251 259 262 260 266 267 267 264 260 263 264 251 247 251 252 253 254 253 247 246 246 247
283 274 271 272 266 264 242 246 246 237 239 251 251 264 273 273 274 283 285 290 289 275 261 270 272 271 269 266 270 273 270 257 245 244 248 252 254 257 262 261 262 259 258
281 284 280 271 274 271 268 249 245 242 237 245 251 258 268 271 271 269 264 279 283 285 276 270 271 271 271 269 269 275 270 254 250 250 252 260 259 254 253 253 256 256 266
290 287 293 292 284 278 280 266 262 245 240 241 235 239 248 258 268 282 282 269 262 264 278 281 287 284 283 277 273 266 265 265 259 257 256 258 263 260 257 252 253 259 258
295 300 294 292 290 286 289 306 303 296 289 274 268 266 263 271 282 286 290 290 289 281 270 258 271 272 272 273 272 274 267 265 264 264 259 254 258 259 261 261 257 254 255
280 289 285 284 282 283 287 294 307 317 311 303 298 295 289 285 288 292 294 296 299 295 263 253 259 265 268 271 271 271 271 275 274 263 261 260 259 260 261 261 259 260 259
284 283 289 286 285 287 287 286 287 297 308 309 315 314 312 308 306 307 311 319 322 331 286 269 262 264 267 271 273 275 279 281 274 267 265 264 262 263 263 262 260 259 262
292 286 285 283 282 282 284 285 285 286 291 300 311 314 317 316 322 324 331 333 300 294 290 279 271 265 265 266 267 269 268 267 269 269 267 266 263 263 265 268 267 268 268
296 295 300 295 292 291 291 289 291 294 298 302 303 305 311 318 320 322 328 313 293 287 285 279 276 270 265 260 259 259 260 263 264 265 265 265 263 259 261 265 265 264 262
300 301 309 314 307 298 296 291 292 293 293 296 297 297 301 304 302 300 298 294 284 280 280 283 280 272 267 263 259 257 257 259 258 257 257 259 260 263 263 262 266 267 266
289 296 299 294 295 291 292 288 286 289 295 299 305 311 315 323 314 302 297 295 289 279 271 270 273 271 263 258 255 252 253 256 255 253 252 252 253 254 257 258 261 266 264
279 288 293 295 295 299 310 311 301 296 296 299 303 306 310 307 297 292 292 295 293 288 281 269 265 270 267 260 253 249 252 254 251 245 245 248 249 248 247 250 254 258 258
272 280 287 293 294 291 294 296 295 293 294 294 296 298 299 298 294 291 291 292 293 291 285 276 266 265 268 272 268 259 256 260 258 244 236 238 243 247 243 245 248 251 252
264 270 275 279 284 287 290 292 294 294 295 295 294 295 298 297 296 295 291 288 286 285 285 281 274 269 268 270 270 268 268 272 269 256 234 232 237 239 239 241 244 248 247
270 267 270 274 276 278 281 284 288 291 291 292 292 291 291 290 289 289 290 290 289 285 283 281 274 272 273 272 269 272 276 277 277 270 252 236 231 235 234 237 240 240 240